ONEWEB-0698, 61604

Orbit data source: Space-Track

ONEWEB-0698, 61604 is a payload satellite owned by Eut. One Web (UK) in LEO that was launched on Sun, 20 Oct 2024 UTC via an FALCON 9 launch vehicle from the Air Force Western Test Range (AFWTR). Payload-class satellites include a variety of spacecraft equipped with specific instruments for various scientific and technological missions. These include communications satellites like Starlink; space stations such as the ISS; scientific satellites like the Hubble; Earth observation satellites from companies like Planet Labs, Umbra, and HawkEye 360; GPS; miniature CubeSats for education and research; and military/defense satellites.

Loading next visibility...
Identifier
61604, 2024-188L
Orbit
LEO
Country
Flag of UKUK
Related business
Manufacturer
One Web
Mission
Operational Commercial Communications
Bus & Motor
ARROW, Unknown motor
Mass
148 kg wet, ~140 kg dry
Launch date (UTC)
2024-10-20 (1 year ago)
Launch vehicle
FALCON 9
Launch site
Air Force Western Test Range (AFWTR)
Object type
Payload
Rocket body
Debris
Shape & HBR
Trap Box + 2 Pan, 6.7 m
Radar Cross Section
3.464 m², Large (>1 m²)

Expand to show TLE details & history
Last TLE update: 12 hours ago

TLE from 12 hours ago
0 ONEWEB-0698
1 61604U 24188L   25305.60936767 -.00000560  00000-0 -16151-2 0  9998
2 61604  87.8840  66.4091 0002742 111.1775 248.9646 13.11418237 54647
Epoch: 2025-11-01T14:37Z
TLE epoch observation values (Epoch: 2025-11-01T14:37:29.366Z)
Latitude
-0.00004°
Longitude
165.89975°
Altitude
1,221.315 km
Speed
7.243 km/s
True Right ascension
04h 25m 38s
True Declination
0° 00' 00"
Sunlit
Object was in full shadow at epoch
Visualization orbit readout
Latitude
Unknown
Longitude
Unknown
Altitude
Unknown
Speed
Unknown
Apparent Right ascension
Unknown
Apparent Declination
Unknown
Sunlit
N/A
Visualization observer readout
Local Sidereal Time
21:54:06
Azimuth
Unknown
Elevation
Unknown
Doppler factor
Unknown
Orbital elements
Apogee altitude
1,216.878 km
Perigee altitude
1,212.714 km
Semi-major axis
7,592.933 km
Eccentricity
0.00027
Inclination
87.884°
RAAN
66.4091°
Arg. of periapsis
111.1775°
True anomaly
248.93528°
Mean anomaly
248.9646°
Eccentric anomaly
248.94994°
Mean motion
3.28042 °/min
Orbital period
109.74 mins
BSTAR
-0.0016151
Loading maneuver chart data...
Computing Atmospheric mass density...
Loading historical data...
Loading historical data...
Loading historical data...
Loading historical data...
Loading historical data...
Loading historical data...
Loading historical data...

Documentation

Showing up to 5 results
|